Tuxtla Gutierrez, Mexico

12:07 PM CDT on September 23, 2017 (GMT -0500)
Francisco Sarabia

Weather History for MMTG - September, 2013

Change the Weather History Date:

Thursday, September 12, 2013

  Actual Average Record
Temperature  
Mean Temperature 74 °F -  
Max Temperature 79 °F 80 °F 93 °F (2015)
Min Temperature 69 °F 66 °F 62 °F (2005)
Cooling Degree Days 9    
Growing Degree Days 24 (Base 50)    
Moisture  
Dew Point 70 °F    
Average Humidity 89    
Maximum Humidity 100    
Minimum Humidity 66    
Precipitation  
Precipitation 0.79 in - - ()
Sea Level Pressure  
Sea Level Pressure 29.81 in    
Wind  
Wind Speed 3 mph ()    
Max Wind Speed 12 mph    
Max Gust Speed -    
Visibility 6.4 miles    
Events Rain    
Averages and records for this station are not official NWS values.
T = Trace of Precipitation, MM = Missing Value Source: Averaged Metar Reports

Daily Weather History Graph

Daily Weather History Graph

Search for Another Location

Airport or City:

Trip Planner

Search our weather history database for the weather conditions in past years. The results will help you decide how hot, cold, wet, or windy it might be!

Date:

Astronomy

Sep. 12, 2013 Rise Set
Actual Time 7:00 AM CDT 7:16 PM CDT
Civil Twilight 6:38 AM CDT 7:38 PM CDT
Nautical Twilight 6:13 AM CDT 8:03 PM CDT
Astronomical Twilight 5:48 AM CDT 8:28 PM CDT
Moon 1:31 PM CDT (9/12) 12:10 AM CDT (9/12)
Length of Visible Light 12h 59m
Length of Day
12h 16m
Waxing Crescent, 50% of the Moon is Illuminated
Sep 12
Waxing Crescent
Sep 12
First Quarter
Sep 19
Full
Sep 26
Last Quarter
Oct 4
New

Hourly Weather History & Observations

Time (CDT) Temp. Heat Index Dew Point Humidity Pressure Visibility Wind Dir Wind Speed Gust Speed Precip Events Conditions
3:40 AM 71 °F - 69 °F 90% 29.76 in 8 mi West 2.2 mph - - Rain Light Drizzle
5:44 AM 69.8 °F - 68.0 °F 94% 29.85 in 3.0 mi Calm Calm - N/A   Overcast
6:40 AM 71 °F - 69 °F 90% 29.77 in 9 mi North 2.2 mph - -   Mostly Cloudy
6:48 AM 69.8 °F - 68.0 °F 94% 29.77 in 4.0 mi Calm Calm - N/A   Overcast
7:45 AM 71.6 °F - 69.8 °F 94% 29.87 in 4.0 mi SSE 2.3 mph - N/A   Overcast
8:49 AM 71.6 °F - 69.8 °F 94% 29.90 in 3.0 mi Calm Calm - N/A   Drizzle
9:45 AM 73 °F - 70 °F 86% 29.84 in 9 mi West 2.2 mph - - Rain Light Drizzle
9:47 AM 73.4 °F - 69.8 °F 88% 29.82 in 3.0 mi NE 2.3 mph - N/A   Overcast
10:43 AM 73.4 °F - 69.8 °F 88% 29.90 in 4.0 mi North 4.6 mph - N/A   Overcast
11:45 AM 77.0 °F - 69.8 °F 78% 29.90 in 5.0 mi Calm Calm - N/A   Overcast
12:40 PM 78.8 °F - 69.8 °F 74% 29.79 in 7.0 mi SSE 3.5 mph - N/A   Overcast
1:40 PM 80.6 °F 83.9 °F 69.8 °F 70% 29.85 in 7.0 mi SE 2.3 mph - N/A   Overcast
2:46 PM 82.4 °F 86.3 °F 69.8 °F 66% 29.82 in 5.0 mi ESE 6.9 mph - N/A   Overcast
3:24 PM 77.0 °F - 71.6 °F 83% 29.81 in 2.0 mi South 11.5 mph - N/A Rain Rain
3:43 PM 77.0 °F - 71.6 °F 83% 29.71 in 2.0 mi South 8.1 mph - N/A Rain Rain
3:45 PM 73 °F - 71 °F 91% 29.74 in 9 mi West 2.2 mph - - Rain Rain
4:15 PM 75.2 °F - 71.6 °F 89% 29.80 in 6.0 mi WNW 9.2 mph - N/A   Overcast
4:50 PM 73.4 °F - 71.6 °F 94% 29.81 in 5.0 mi NNW 10.4 mph - N/A Rain Light Rain
5:46 PM 71.6 °F - 69.8 °F 94% 29.82 in 4.0 mi North 6.9 mph - N/A Rain Light Rain
6:45 PM 73 °F - 70 °F 88% 29.75 in 9 mi SE 2.2 mph - - Rain Light Rain
6:45 PM 73.4 °F - 71.6 °F 94% 29.74 in 8.0 mi SSW 4.6 mph - N/A   Overcast
7:49 PM 71.6 °F - 69.8 °F 94% 29.84 in 10.0 mi Calm Calm - N/A   Overcast
8:48 PM 71.6 °F - 69.8 °F 94% 29.85 in 10.0 mi South 3.5 mph - N/A   Overcast
9:45 PM 72 °F - 70 °F 91% 29.78 in 9 mi West 2.2 mph - - Rain Light Rain
9:51 PM 71.6 °F - 69.8 °F 94% 29.78 in 12.0 mi Calm Calm - N/A   Overcast
10:49 PM 71.6 °F - 71.6 °F 100% 29.87 in 8.0 mi Calm Calm - N/A Rain Light Rain
11:47 PM 71.6 °F - 71.6 °F 100% 29.86 in 8.0 mi Calm Calm - N/A Rain Light Rain